Regional Weather Roundup
Issued by NWS Nashville, TN

Home | Current Version | Previous Version | Text Only | Print | Product List | Glossary On
Versions: 1 2 3 4 5 6 7 8 9 10 11 12 13 14 15 16 17 18 19 20 21 22 23 24 25 26 27 28 29 30 31 32 33 34 35 36 37 38 39 40 41 42 43 44 45 46 47 48 49 50
000
ASUS44 KOHX 010510
RWROHX
MIDDLE TENNESSEE HOURLY WEATHER ROUNDUP
NATIONAL WEATHER SERVICE NASHVILLE TN
1200 AM CDT WED OCT 01 2014

NOTE: "FAIR" INDICATES FEW OR NO CLOUDS BELOW 12,000 FEET WITH
NO SIGNIFICANT WEATHER AND/OR OBSTRUCTIONS TO VISIBILITY.

* THESE REPORTS ARE NOT UNDER NWS QUALITY CONTROL AND MAY NOT
  REPORT WEATHER SUCH AS PRECIPITATION AND FOG.


TNZ005>011-023>034-057-059-062>066-078-080-010600
...NORTHERN MIDDLE TENNESSEE...

CITY           SKY/WX    TMP DP  RH WIND       PRES   REMARKS
CLARKSVILLE    PTCLDY    61  58  90 CALM      29.92S FOG
CROSSVILLE     MOCLDY    59  53  80 CALM      29.99S
GALLATIN         N/A     60  57  89 CALM      29.94R
LEBANON        MOCLDY    59  53  80 CALM      29.92R
NASHVILLE      MOCLDY    64  56  75 CALM      29.93S
PORTLAND       MOCLDY    57  55  94 S3        29.93R
SMYRNA         MOCLDY    58  55  89 CALM      29.94R
SPARTA         CLEAR     52  50  93 CALM      29.95S
$$
TNZ056-058-060-061-075>077-079-093>097-010600
...SOUTHERN MIDDLE TENNESSEE...

CITY           SKY/WX    TMP DP  RH WIND       PRES   REMARKS
COLUMBIA       MOCLDY   N/A N/A N/A CALM      29.92S
FAYETTEVILLE   CLEAR     63  55  77 MISG      29.94S
LEWISBURG      MOCLDY    56  54  93 CALM      29.93S
MCMINNVILLE    CLEAR     59  59 100 CALM      29.95F
MURFREESBORO   MOCLDY    63  53  69 CALM      29.93R
SHELBYVILLE    CLEAR     61  55  82 CALM      29.95S
TULLAHOMA      CLEAR     57  54  88 CALM      29.96S
WINCHESTER     CLEAR     57  55  94 CALM      29.95S
$$


...KEY TO REMARKS...
VSB - VISIBILITY IN MILES
WCI - WIND CHILL INDEX
HX  - HEAT INDEX




USA.gov is the U.S. government's official web portal to all federal, state and local government web resources and services.